Regional Weather Roundup
Issued by NWS

Home | Current Version | Previous Version | Text Only | Print | Product List | Glossary On
Versions: 1 2 3 4 5 6 7 8 9 10 11 12 13 14 15 16 17 18 19 20 21 22 23 24 25 26 27 28 29 30 31 32 33 34 35 36 37 38 39 40 41 42 43 44 45 46 47 48 49 50
000
ASUS42 KTBW 311110
RWRFL
FLORIDA REGIONAL WEATHER ROUNDUP
NATIONAL WEATHER SERVICE TAMPA BAY RUSKIN FL
700 AM EDT THU JUL 31 2014

NOTE: "FAIR" INDICATES FEW OR NO CLOUDS BELOW 12,000 FEET WITH NO
SIGNIFICANT WEATHER AND/OR OBSTRUCTIONS TO VISIBILITY.


FLZ001>010-012>015-112-114-115-311200-
PANHANDLE FLORIDA

CITY           SKY/WX    TMP DP  RH WIND       PRES   REMARKS
PENSACOLA      CLEAR     64  59  83 N3        30.00R
PENSACOLA NAS  PTCLDY    64  60  87 CALM      30.00R
MILTON NAS     PTCLDY    60  57  89 CALM      30.01
CRESTVIEW      CLEAR     57  55  93 CALM      30.02R
DUKE FIELD     FAIR      59  58  99 NE1       30.00S
VALPARAISO     PTCLDY    64  59  82 N2        30.00R
MARY ESTHER    CLEAR     63  56  76 N5        29.99R
TRI COUNTY     FAIR      60  59  96 CALM      30.01R
PANAMA CITY    FAIR      64  60  87 CALM      29.99R
TYNDALL AFB    CLEAR     70  61  74 NE2       30.00R
APALACHICOLA   CLEAR     64  62  93 NE5       29.98R

STATION/POSITION SKY/WX   TEMP    WIND        PRES    WAVE   SWELL
                          AIR SEA DIR/SP/G            HT/PER HT/PER
                          (F)     (DEG/KT/KT) (MB)    (FT/S) (FT/S)
30.1N   87.6W              79 83   40/  8/ 10 1015.6R   1
29.2N   88.2W              81 85   10/  4/  4 1015.3R
28.8N   86.0W              81 85  330/  6/  8 1015.4    1
PANAMA CITY BEAC           68 79   30/  5/  7 1015.5R
CAPE SAN BLAS    NOT AVBL
TOWER C                    78      10/  7/  8 1015.3R
28.5N   84.5W              82 85  310/  4/  6 1015.2R   1/ 7   2/ 7

$$
FLZ011-016>038-118-127-128-134-139-239-311200-
NORTH FLORIDA

CITY           SKY/WX    TMP DP  RH WIND       PRES   REMARKS
MARIANNA       CLEAR     65  63  93 CALM      30.00R
TALLAHASSEE    PTCLDY    65  61  87 N5        29.99R
PERRY          CLEAR     64  63  94 CALM      29.99R
CROSS CITY       N/A     67  64  90 CALM      29.98R
GAINESVILLE    CLEAR     67  65  93 CALM      29.98R
MAYPORT NAS    MOCLDY    74  71  91 S5        29.98R
JACKSONVILLE   MOCLDY    70  70 100 CALM      29.97R FOG
JAX NAS        PTCLDY    77  65  66 SW3       29.99R
JAX CRAIG      CLEAR     73  70  90 CALM      29.98R
JAX CECIL      PTCLDY    64  64 100 CALM      29.98
FERNANDINA BEA FAIR      75  72  88 CALM      29.96R
ST AUGUSTINE   PTCLDY    73  67  81 CALM      29.99R

STATION/POSITION SKY/WX   TEMP    WIND        PRES    WAVE   SWELL
                          AIR SEA DIR/SP/G            HT/PER HT/PER
                          (F)     (DEG/KT/KT) (MB)    (FT/S) (FT/S)
SHELL POINT                70     360/  4/  5   N/A
KEATON BEACH               71      20/  4/  6 1015.3R
CEDAR KEY                  76      10/  3/  3 1015.0R
FERNANDINA                 80 86  330/  4/  4 1014.3R
30.7N   81.3W                 85                N/A     2/ 5
MAYPORT                    74 86  190/  5/  6   N/A
31.4N   80.9W              82 85  160/ 10/ 12 1014.8R   3/ 5   3/ 5
ST AUGUSTINE               74     320/  3/  4 1015.9R

$$
FLZ040-043>046-052-053-057-058-063-144-311200-
INTERIOR CENTRAL FLORIDA

CITY           SKY/WX    TMP DP  RH WIND       PRES   REMARKS
OCALA          MOCLDY    70  61  73 CALM      29.97S
LEESBURG       CLOUDY    76  67  73 N5        29.98R
SANFORD        CLOUDY    76  75  97 CALM      29.96R
ORLANDO EXEC   CLEAR     76  75  97 E3        29.97R
ORLANDO INTL   MOCLDY    77  75  93 E5        29.97R
KISSIMMEE      PTCLDY    75  73  94 CALM      29.97
WINTER HAVEN   CLEAR     73  67  81 NW5       29.98R
LAKELAND       CLEAR     72  66  83 CALM      29.98R
BARTOW         FAIR      73  66  78 NW3       29.98R
OKEECHOBEE       N/A     73  73 100 MISG      29.97R

$$
FLZ041-047-054-059-064-141-147-311200-
EAST CENTRAL FLORIDA

CITY           SKY/WX    TMP DP  RH WIND       PRES   REMARKS
ORMOND BEACH   CLEAR     90  63  40 CALM      29.97  FOG
DAYTONA BEACH  MOCLDY    75  72  90 CALM      29.97R
DELAND         MOSUNNY   73  72  94 N3        29.98R
NEW SMYRNA BEA PTCLDY    73  72  94 N3        29.97
JFK SPACE CTR  PTCLDY    75  75 100 CALM      29.96R
TITUSVILLE     MOCLDY    75  73  94 CALM      29.96
CAPE CANAVERAL PTCLDY    77  74  92 S5        29.95R
PATRICK AFB    CLEAR     79  76  89 S5        29.96R
MELBOURNE      CLEAR     78  75  90 S7        29.96R
VERO BEACH     PTCLDY    75  73  93 S5        29.97R
FT PIERCE      PTCLDY    76  73  91 CALM      29.97R
STUART         PTCLDY    77  75  94 CALM      29.97R

STATION/POSITION SKY/WX   TEMP    WIND        PRES    WAVE   SWELL
                          AIR SEA DIR/SP/G            HT/PER HT/PER
                          (F)     (DEG/KT/KT) (MB)    (FT/S) (FT/S)
28.5N   80.2W              83 83  130/  6/  6 1014.4R
28.9N   78.5W              82 84  210/  8/ 10 1015.5R   2/ 8   2/ 8
TRIDENT PIER               81 84  170/  5/  6 1013.7R
28.4N   80.5W                 83                N/A     1/ 8
27.6N   80.2W                 83                N/A     1/ 8

$$
FLZ050-056-061-142-242-148-248-149-249-151-251-155-255-
160-260-311200-
WEST CENTRAL FLORIDA

CITY           SKY/WX    TMP DP  RH WIND       PRES   REMARKS
BROOKSVILLE    PTCLDY    69  67  93 CALM      29.98R
ZEPHYRHILLS    FAIR      68  68 100 CALM      29.98R
CLEARWATER     CLEAR     77  69  76 CALM      29.97R
TAMPA INTL     PTCLDY    77  67  71 CALM      29.97R
TAMPA EXEC     CLEAR     72  70  94 CALM      29.98R FOG
PLANT CITY     CLEAR     75  70  83 CALM      29.99R
MACDILL AFB    CLEAR     72  68  85 N3        29.97R
ST PETERSBURG  CLEAR     81  70  69 N3        29.95R
SARASOTA       CLEAR     74  68  81 CALM      29.95R
VENICE         FAIR      75  70  83 CALM      29.97S

STATION/POSITION SKY/WX   TEMP    WIND        PRES    WAVE   SWELL
                          AIR SEA DIR/SP/G            HT/PER HT/PER
                          (F)     (DEG/KT/KT) (MB)    (FT/S) (FT/S)
CEDAR KEY                  76      10/  3/  3 1015.0R
28.5N   84.5W              82 85  310/  4/  6 1015.2R   1/ 7   2/ 7
27.3N   84.3W                 86                N/A     1/ 4
CLEARWATER BEACH           80 87   90/  3/  6 1014.4R
MIDDLE TAMPA BAY           81      60/  2/  4 1014.8R
VENICE                     77 88   80/  4/  5 1014.5R

$$
FLZ066-069-070-075>078-162-262-165-265-311200-
SOUTHWEST FLORIDA AND KEYS

CITY           SKY/WX    TMP DP  RH WIND       PRES   REMARKS
PUNTA GORDA      N/A     76  74  93 CALM      29.97S
FT MYERS       MOCLDY    77  76  96 CALM      29.95S
SOUTHWEST INTL PTCLDY    76  74  93 E3        29.96S
NAPLES         PTCLDY    78  78 100 CALM      29.96S
MARCO ISLAND   CLOUDY    79  73  83 S5        29.96S
MARATHON       PTCLDY   N/A N/A N/A S6        29.97R
KEY WEST NAS   MOCLDY    84  76  76 S7        29.98R
KEY WEST INTL  MOCLDY    85  76  74 S8        29.98R

STATION/POSITION SKY/WX   TEMP    WIND        PRES    WAVE   SWELL
                          AIR SEA DIR/SP/G            HT/PER HT/PER
                          (F)     (DEG/KT/KT) (MB)    (FT/S) (FT/S)
VENICE                     77 88   80/  4/  5 1014.5R
NAPLES                     79 92  100/  2/  3 1015.0R
DRY TORTUGAS               84     290/  2/  3 1014.7R
NW FL BAY                  86     220/  7/  8 1014.6R
SAND KEY                   84     210/  6/  8 1014.8R
SOMBRERO KEY               85     190/  7/  9 1015.7R
LONG KEY                   85 89  190/  8/  9 1015.4R
MOLASSES REEF              84 87  190/  9/ 10 1015.0R

$$
FLZ067-068-071>074-168-172>174-311200-
SOUTHEAST FLORIDA

CITY           SKY/WX    TMP DP  RH WIND       PRES   REMARKS
W PALM BEACH   MOCLDY    79  75  87 S3        29.96R
FT LAUDER-EXEC PTCLDY    78  75  90 SW3       29.97R
FT LAUDERDALE  MOCLDY    79  74  84 SW3       29.97R
POMPANO BEACH  PTCLDY   N/A N/A N/A MISG      29.97R
PEMBROKE PINES PTCLDY    78  75  90 S3        29.98R
OPA LOCKA      PTCLDY    77  74  90 CALM      29.98R
MIAMI          MOCLDY    79  74  84 SW6       29.98R
WEST KENDALL   PTCLDY    79  74  84 CALM      29.97R
HOMESTEAD      CLEAR     76  74  94 CALM      29.97S

STATION/POSITION SKY/WX   TEMP    WIND        PRES    WAVE   SWELL
                          AIR SEA DIR/SP/G            HT/PER HT/PER
                          (F)     (DEG/KT/KT) (MB)    (FT/S) (FT/S)
PORT EVERGLADES            79     190/  4/  6 1014.8
VIRGINIA KEY               83 87  210/  6/  7   N/A
LAKE WORTH                 81 83  220/  5/  7 1014.5R
FOWEY ROCKS                84 86  190/ 11/ 13 1015.2R
SETTLEMENT POINT           83     170/  7/  9 1015.8R

$$



USA.gov is the U.S. government's official web portal to all federal, state and local government web resources and services.